This is the latest recevied weather packets stored in our database for station/object OZ1IEP-5. If no packets are shown the sender has not sent any weather packets the latest 10 day(s).
| Time | Temp. | Humidity | Pressure | Rain* | Wind** | Luminosity | Snow |
|---|---|---|---|---|---|---|---|
| 1778062206 | 13.33° C | 50% | 1008.8 hPa | 0 mm | - | 610 W/m² | - |
| 1778061607 | 12.78° C | 46% | 1008.8 hPa | 0 mm | - | 638 W/m² | - |
| 1778061006 | 12.78° C | 47% | 1008.8 hPa | 0 mm | - | 547 W/m² | - |
| 1778060406 | 12.78° C | 48% | 1008.8 hPa | 0 mm | - | 570 W/m² | - |
| 1778059808 | 12.22° C | 49% | 1008.8 hPa | 0 mm | - | 413 W/m² | - |
| 1778059206 | 12.22° C | 50% | 1008.8 hPa | 0 mm | - | 564 W/m² | - |
| 1778058605 | 12.22° C | 52% | 1008.8 hPa | 0 mm | - | 413 W/m² | - |
| 1778058007 | 12.22° C | 49% | 1008.8 hPa | 0 mm | - | 367 W/m² | - |
| 1778057406 | 12.22° C | 50% | 1008.8 hPa | 0 mm | - | 487 W/m² | - |
| 1778056806 | 11.67° C | 53% | 1008.9 hPa | 0 mm | - | 512 W/m² | - |
| 1778056208 | 11.67° C | 53% | 1008.8 hPa | 0 mm | - | 483 W/m² | - |
| 1778055605 | 11.11° C | 52% | 1008.8 hPa | 0 mm | - | 496 W/m² | - |
| 1778055006 | 11.11° C | 54% | 1008.8 hPa | 0 mm | - | 250 W/m² | - |
| 1778054408 | 10.56° C | 59% | 1008.8 hPa | 0 mm | - | 172 W/m² | - |
| 1778053805 | 10.56° C | 59% | 1008.8 hPa | 0 mm | - | 125 W/m² | - |
| 1778053206 | 10° C | 55% | 1008.8 hPa | 0 mm | - | 100 W/m² | - |
| 1778052608 | 10° C | 57% | 1008.8 hPa | 0 mm | - | 155 W/m² | - |
| 1778052006 | 9.44° C | 56% | 1008.8 hPa | 0 mm | - | 144 W/m² | - |
| 1778051406 | 9.44° C | 57% | 1008.8 hPa | 0 mm | - | 102 W/m² | - |
| 1778050808 | 9.44° C | 57% | 1008.8 hPa | 0 mm | - | 81 W/m² | - |
| 1778050206 | 8.89° C | 56% | 1008.9 hPa | 0 mm | - | 69 W/m² | - |
| 1778049605 | 8.89° C | 57% | 1008.8 hPa | 0 mm | - | 65 W/m² | - |
| 1778049007 | 8.89° C | 57% | 1008.9 hPa | 0 mm | - | 69 W/m² | - |
| 1778048406 | 8.33° C | 57% | 1008.9 hPa | 0 mm | - | 53 W/m² | - |
| 1778047806 | 8.33° C | 56% | 1009 hPa | 0 mm | - | 44 W/m² | - |
* Rain latest hour (hover to see other rain measurements)
** Current wind speed in m/s (hover to see current wind gust speed)